| time (UTC) | temp F | wind direction | speed MPH | gust MPH | rain 1hr in | rain 24hr in | rain mn in | humidity % | barometer mb |
| 20260904050951 | 80 | 162 | 2.0 | 8.0 | 0.00 | 0.01 | 0.00 | 68 | 1012.0 |
| 20260904050447 | 80 | 247 | 3.0 | 8.0 | 0.00 | 0.01 | 0.00 | 68 | 1012.0 |
| 20260904045927 | 80 | 160 | 2.0 | 7.0 | 0.00 | 0.01 | 0.01 | 67 | 1012.0 |
| 20260904045425 | 80 | 194 | 2.0 | 7.0 | 0.00 | 0.01 | 0.01 | 67 | 1012.1 |
| 20260904044925 | 80 | 188 | 2.0 | 6.0 | 0.00 | 0.01 | 0.01 | 66 | 1012.1 |
| 20260904044422 | 80 | 94 | 2.0 | 6.0 | 0.00 | 0.01 | 0.01 | 66 | 1012.1 |
| 20260904043921 | 80 | 139 | 2.0 | 6.0 | 0.00 | 0.01 | 0.01 | 66 | 1012.1 |
| 20260904043419 | 80 | 125 | 3.0 | 6.0 | 0.00 | 0.01 | 0.01 | 65 | 1012.1 |
| 20260904042922 | 80 | 188 | 3.0 | 9.0 | 0.00 | 0.01 | 0.01 | 65 | 1012.2 |
| 20260904042352 | 81 | 186 | 3.0 | 9.0 | 0.00 | 0.01 | 0.01 | 65 | 1012.3 |
| 20260904041851 | 81 | 221 | 2.0 | 8.0 | 0.00 | 0.01 | 0.01 | 65 | 1012.2 |
| 20260904041355 | 81 | 229 | 3.0 | 6.0 | 0.00 | 0.01 | 0.01 | 65 | 1012.3 |
| 20260904040835 | 81 | 220 | 3.0 | 7.0 | 0.00 | 0.01 | 0.01 | 65 | 1012.2 |
| 20260904040310 | 81 | 150 | 3.0 | 6.0 | 0.00 | 0.01 | 0.01 | 64 | 1012.2 |
| 20260904035803 | 81 | 256 | 3.0 | 7.0 | 0.00 | 0.01 | 0.01 | 64 | 1012.2 |
| 20260904035245 | 81 | 254 | 3.0 | 6.0 | 0.00 | 0.01 | 0.01 | 64 | 1012.1 |
| 20260904034743 | 81 | 207 | 2.0 | 7.0 | 0.00 | 0.01 | 0.01 | 64 | 1012.1 |
| 20260904034245 | 81 | 194 | 2.0 | 7.0 | 0.00 | 0.01 | 0.01 | 64 | 1012.1 |
| 20260904033725 | 81 | 117 | 2.0 | 8.0 | 0.00 | 0.01 | 0.01 | 64 | 1012.2 |
| 20260904033218 | 81 | 127 | 3.0 | 7.0 | 0.00 | 0.01 | 0.01 | 64 | 1012.2 |
| 20260904032659 | 82 | 200 | 3.0 | 10.0 | 0.00 | 0.01 | 0.01 | 64 | 1012.2 |
| 20260904032138 | 82 | 266 | 3.0 | 10.0 | 0.00 | 0.01 | 0.01 | 64 | 1012.4 |
| 20260904031641 | 82 | 242 | 3.0 | 10.0 | 0.00 | 0.01 | 0.01 | 64 | 1012.3 |
| 20260904031116 | 82 | 113 | 3.0 | 6.0 | 0.00 | 0.01 | 0.01 | 64 | 1012.2 |
| 20260904030559 | 82 | 200 | 4.0 | 10.0 | 0.00 | 0.01 | 0.01 | 64 | 1012.2 |
| 20260904030256 | 82 | 98 | 4.0 | 9.0 | 0.00 | 0.01 | 0.01 | 64 | 1012.0 |
| 20260904025510 | 82 | 117 | 4.0 | 12.0 | 0.00 | 0.01 | 0.01 | 64 | 1012.0 |
| 20260904025005 | 82 | 245 | 4.0 | 12.0 | 0.00 | 0.01 | 0.01 | 64 | 1011.9 |
| 20260904024503 | 82 | 131 | 3.0 | 8.0 | 0.00 | 0.01 | 0.01 | 64 | 1011.9 |
| 20260904024004 | 82 | 181 | 3.0 | 8.0 | 0.00 | 0.01 | 0.01 | 64 | 1011.7 |
| 20260904023439 | 83 | 250 | 4.0 | 8.0 | 0.00 | 0.01 | 0.01 | 65 | 1011.5 |
| 20260904022913 | 83 | 172 | 3.0 | 10.0 | 0.00 | 0.01 | 0.01 | 65 | 1011.5 |
| 20260904022410 | 83 | 82 | 3.0 | 10.0 | 0.00 | 0.01 | 0.01 | 66 | 1011.4 |
| 20260904021910 | 83 | 244 | 3.0 | 8.0 | 0.00 | 0.01 | 0.01 | 67 | 1011.2 |
| 20260904021409 | 83 | 133 | 3.0 | 11.0 | 0.00 | 0.01 | 0.01 | 66 | 1011.1 |
| 20260904020905 | 83 | 165 | 4.0 | 10.0 | 0.00 | 0.01 | 0.01 | 65 | 1011.1 |
| 20260904020341 | 83 | 207 | 4.0 | 11.0 | 0.00 | 0.01 | 0.01 | 64 | 1011.1 |
| 20260904015812 | 83 | 120 | 3.0 | 9.0 | 0.00 | 0.01 | 0.01 | 64 | 1010.9 |
| 20260904015308 | 84 | 218 | 2.0 | 8.0 | 0.00 | 0.01 | 0.01 | 64 | 1010.9 |
| 20260904014806 | 84 | 115 | 2.0 | 7.0 | 0.00 | 0.01 | 0.01 | 65 | 1010.8 |
| 20260904014305 | 84 | 133 | 4.0 | 7.0 | 0.00 | 0.01 | 0.01 | 65 | 1010.8 |
| 20260904013736 | 84 | 126 | 4.0 | 9.0 | 0.00 | 0.01 | 0.01 | 64 | 1010.8 |
| 20260904013211 | 84 | 124 | 3.0 | 9.0 | 0.00 | 0.01 | 0.01 | 64 | 1010.7 |
| 20260904012642 | 85 | 170 | 4.0 | 8.0 | 0.00 | 0.01 | 0.01 | 64 | 1010.6 |
| 20260904012338 | 85 | 195 | 4.0 | 9.0 | 0.00 | 0.01 | 0.01 | 64 | 1010.6 |
| 20260904011608 | 85 | 151 | 3.0 | 9.0 | 0.00 | 0.01 | 0.01 | 65 | 1010.5 |
| 20260904011044 | 85 | 108 | 3.0 | 10.0 | 0.00 | 0.01 | 0.01 | 64 | 1010.4 |
| 20260904010744 | 85 | 115 | 3.0 | 10.0 | 0.00 | 0.01 | 0.01 | 64 | 1010.4 |
| 20260904010022 | 85 | 152 | 3.0 | 11.0 | 0.00 | 0.01 | 0.01 | 63 | 1010.4 |
| 20260904005523 | 85 | 144 | 4.0 | 11.0 | 0.00 | 0.01 | 0.01 | 63 | 1010.5 |
| 20260904005022 | 85 | 96 | 3.0 | 9.0 | 0.00 | 0.01 | 0.01 | 63 | 1010.5 |
| 20260904004518 | 86 | 216 | 4.0 | 13.0 | 0.00 | 0.01 | 0.01 | 62 | 1010.5 |
| 20260904004239 | 86 | 136 | 5.0 | 13.0 | 0.00 | 0.01 | 0.01 | 62 | 1010.5 |
| 20260904003511 | 86 | 112 | 4.0 | 9.0 | 0.00 | 0.01 | 0.01 | 61 | 1010.4 |
| 20260904002947 | 87 | 180 | 5.0 | 13.0 | 0.00 | 0.01 | 0.01 | 60 | 1010.4 |
| 20260904002420 | 87 | 152 | 6.0 | 14.0 | 0.00 | 0.01 | 0.01 | 59 | 1010.4 |
| 20260904001915 | 87 | 105 | 6.0 | 14.0 | 0.00 | 0.01 | 0.01 | 58 | 1010.3 |
| 20260904001634 | 87 | 119 | 6.0 | 13.0 | 0.00 | 0.01 | 0.01 | 57 | 1010.3 |
| 20260904000910 | 88 | 117 | 5.0 | 13.0 | 0.00 | 0.01 | 0.01 | 56 | 1010.3 |
| 20260904000406 | 88 | 166 | 4.0 | 9.0 | 0.00 | 0.01 | 0.01 | 55 | 1010.3 |
| 20260903235904 | 88 | 110 | 5.0 | 10.0 | 0.00 | 0.01 | 0.01 | 55 | 1010.3 |
| 20260903235336 | 88 | 122 | 5.0 | 12.0 | 0.00 | 0.01 | 0.01 | 55 | 1010.3 |
| 20260903235055 | 88 | 136 | 5.0 | 13.0 | 0.00 | 0.01 | 0.01 | 55 | 1010.2 |
| 20260903234331 | 89 | 124 | 3.0 | 13.0 | 0.00 | 0.01 | 0.01 | 55 | 1010.2 |
| 20260903233828 | 89 | 279 | 4.0 | 14.0 | 0.00 | 0.01 | 0.01 | 56 | 1010.2 |
| 20260903233312 | 89 | 126 | 5.0 | 14.0 | 0.00 | 0.01 | 0.01 | 56 | 1010.2 |
| 20260903232744 | 89 | 167 | 5.0 | 13.0 | 0.00 | 0.01 | 0.01 | 57 | 1010.0 |
| 20260903232242 | 89 | 137 | 6.0 | 13.0 | 0.00 | 0.01 | 0.01 | 56 | 1010.0 |
| 20260903232159 | 89 | 142 | 6.0 | 13.0 | 0.00 | 0.01 | 0.01 | 56 | 1010.1 |
| 20260903231148 | 89 | 131 | 6.0 | 14.0 | 0.00 | 0.01 | 0.01 | 56 | 1010.1 |
| 20260903230912 | 89 | 137 | 6.0 | 14.0 | 0.00 | 0.01 | 0.01 | 55 | 1010.0 |
| 20260903230119 | 89 | 110 | 6.0 | 13.0 | 0.00 | 0.01 | 0.01 | 55 | 1010.0 |
| 20260903225615 | 90 | 149 | 5.0 | 13.0 | 0.00 | 0.01 | 0.01 | 54 | 1010.0 |
| 20260903225113 | 90 | 143 | 5.0 | 10.0 | 0.00 | 0.01 | 0.01 | 54 | 1010.0 |
| 20260903224549 | 91 | 154 | 4.0 | 12.0 | 0.00 | 0.01 | 0.01 | 54 | 1009.9 |
| 20260903224020 | 91 | 223 | 4.0 | 11.0 | 0.00 | 0.01 | 0.01 | 53 | 1009.9 |
| 20260903223516 | 91 | 141 | 4.0 | 11.0 | 0.00 | 0.02 | 0.01 | 54 | 1009.9 |
| 20260903223211 | 90 | 116 | 5.0 | 11.0 | 0.00 | 0.05 | 0.01 | 53 | 1009.9 |
| 20260903222641 | 90 | 217 | 5.0 | 12.0 | 0.00 | 0.05 | 0.01 | 53 | 1009.9 |
| 20260903221918 | 90 | 107 | 6.0 | 12.0 | 0.00 | 0.05 | 0.01 | 54 | 1009.9 |
| 20260903221640 | 90 | 153 | 6.0 | 13.0 | 0.00 | 0.05 | 0.01 | 53 | 1009.9 |
| 20260903220914 | 90 | 108 | 6.0 | 13.0 | 0.00 | 0.05 | 0.01 | 52 | 1009.9 |
| 20260903220349 | 90 | 113 | 6.0 | 12.0 | 0.00 | 0.05 | 0.01 | 53 | 1009.9 |
| 20260903215842 | 91 | 145 | 6.0 | 13.0 | 0.00 | 0.05 | 0.01 | 52 | 1010.0 |
| 20260903215314 | 91 | 262 | 5.0 | 13.0 | 0.00 | 0.05 | 0.01 | 52 | 1010.1 |
| 20260903214808 | 91 | 91 | 5.0 | 11.0 | 0.00 | 0.05 | 0.01 | 52 | 1010.1 |
| 20260903214306 | 91 | 203 | 6.0 | 11.0 | 0.00 | 0.05 | 0.01 | 52 | 1010.2 |
| 20260903213738 | 91 | 171 | 5.0 | 11.0 | 0.00 | 0.05 | 0.01 | 52 | 1010.2 |
| 20260903213236 | 91 | 226 | 5.0 | 10.0 | 0.00 | 0.05 | 0.01 | 51 | 1010.3 |
| 20260903212706 | 91 | 112 | 5.0 | 12.0 | 0.00 | 0.05 | 0.01 | 53 | 1010.2 |
| 20260903212142 | 91 | 212 | 6.0 | 12.0 | 0.00 | 0.05 | 0.01 | 53 | 1010.3 |
| 20260903211617 | 90 | 250 | 7.0 | 14.0 | 0.00 | 0.05 | 0.01 | 53 | 1010.4 |
| 20260903211104 | 91 | 231 | 6.0 | 14.0 | 0.00 | 0.05 | 0.01 | 53 | 1010.4 |
| 20260903210607 | 91 | 128 | 6.0 | 12.0 | 0.00 | 0.05 | 0.01 | 52 | 1010.5 |
| 20260903210048 | 91 | 188 | 6.0 | 12.0 | 0.00 | 0.05 | 0.01 | 54 | 1010.5 |
| 20260903205545 | 90 | 199 | 6.0 | 13.0 | 0.00 | 0.05 | 0.01 | 53 | 1010.6 |
| 20260903205505 | 90 | 162 | 6.0 | 13.0 | 0.00 | 0.05 | 0.01 | 54 | 1010.6 |
| 20260903204720 | 91 | 200 | 5.0 | 12.0 | 0.00 | 0.05 | 0.01 | 53 | 1010.7 |
| 20260903203928 | 90 | 60 | 5.0 | 12.0 | 0.00 | 0.05 | 0.01 | 54 | 1010.8 |
| 20260903203401 | 90 | 148 | 6.0 | 12.0 | 0.00 | 0.05 | 0.01 | 55 | 1010.8 |
| 20260903202901 | 90 | 123 | 6.0 | 13.0 | 0.00 | 0.05 | 0.01 | 56 | 1011.0 |
| 20260903202332 | 90 | 115 | 6.0 | 13.0 | 0.00 | 0.05 | 0.01 | 55 | 1011.1 |
| 20260903201828 | 90 | 240 | 5.0 | 13.0 | 0.00 | 0.05 | 0.01 | 55 | 1011.1 |
| 20260903201327 | 90 | 250 | 5.0 | 13.0 | 0.00 | 0.05 | 0.01 | 55 | 1011.2 |
| 20260903200824 | 89 | 217 | 6.0 | 12.0 | 0.00 | 0.05 | 0.01 | 56 | 1011.2 |
| 20260903200302 | 89 | 139 | 6.0 | 12.0 | 0.00 | 0.05 | 0.01 | 57 | 1011.2 |
| 20260903195803 | 89 | 243 | 6.0 | 11.0 | 0.00 | 0.05 | 0.01 | 58 | 1011.2 |
| 20260903195233 | 88 | 165 | 6.0 | 12.0 | 0.00 | 0.05 | 0.01 | 59 | 1011.2 |
| 20260903194731 | 88 | 229 | 6.0 | 13.0 | 0.00 | 0.05 | 0.01 | 58 | 1011.2 |
| 20260903194224 | 88 | 173 | 5.0 | 13.0 | 0.00 | 0.05 | 0.01 | 59 | 1011.3 |
| 20260903193700 | 88 | 267 | 6.0 | 12.0 | 0.00 | 0.05 | 0.01 | 59 | 1011.3 |
| 20260903193352 | 88 | 162 | 5.0 | 10.0 | 0.00 | 0.05 | 0.01 | 58 | 1011.3 |
| 20260903192626 | 88 | 160 | 5.0 | 13.0 | 0.00 | 0.05 | 0.01 | 60 | 1011.4 |
| 20260903192129 | 87 | 146 | 6.0 | 12.0 | 0.00 | 0.05 | 0.01 | 60 | 1011.5 |
| 20260903191603 | 86 | 164 | 6.0 | 13.0 | 0.00 | 0.05 | 0.01 | 62 | 1011.6 |
| 20260903191046 | 86 | 120 | 5.0 | 13.0 | 0.00 | 0.05 | 0.01 | 62 | 1011.7 |
| 20260903190809 | 86 | 240 | 4.0 | 12.0 | 0.00 | 0.05 | 0.01 | 62 | 1012.0 |
| 20260903190017 | 86 | 123 | 5.0 | 12.0 | 0.00 | 0.05 | 0.01 | 62 | 1012.0 |
| 20260903185517 | 86 | 238 | 5.0 | 12.0 | 0.00 | 0.05 | 0.01 | 61 | 1012.1 |
| 20260903185218 | 87 | 160 | 6.0 | 12.0 | 0.00 | 0.05 | 0.01 | 60 | 1012.2 |
| 20260903184450 | 87 | 230 | 6.0 | 13.0 | 0.00 | 0.05 | 0.01 | 61 | 1012.2 |
| 20260903183920 | 86 | 229 | 7.0 | 14.0 | 0.00 | 0.05 | 0.01 | 64 | 1012.3 |
| 20260903183419 | 86 | 139 | 7.0 | 20.0 | 0.00 | 0.05 | 0.01 | 63 | 1012.3 |
| 20260903182915 | 86 | 117 | 6.0 | 20.0 | 0.00 | 0.05 | 0.01 | 63 | 1012.3 |
| 20260903182413 | 86 | 248 | 6.0 | 12.0 | 0.00 | 0.05 | 0.01 | 63 | 1012.4 |
| 20260903181855 | 85 | 131 | 7.0 | 16.0 | 0.00 | 0.05 | 0.01 | 65 | 1012.5 |
| 20260903181357 | 85 | 122 | 7.0 | 14.0 | 0.00 | 0.05 | 0.01 | 65 | 1012.6 |
| 20260903180830 | 84 | 246 | 6.0 | 15.0 | 0.00 | 0.05 | 0.01 | 67 | 1012.6 |
| 20260903180329 | 84 | 217 | 6.0 | 15.0 | 0.00 | 0.05 | 0.01 | 68 | 1012.7 |
| 20260903175828 | 84 | 113 | 6.0 | 14.0 | 0.00 | 0.05 | 0.01 | 69 | 1012.7 |
| 20260903175323 | 83 | 215 | 6.0 | 14.0 | 0.00 | 0.05 | 0.01 | 69 | 1012.8 |
| 20260903174820 | 83 | 112 | 6.0 | 14.0 | 0.00 | 0.05 | 0.01 | 70 | 1012.8 |
| 20260903174302 | 83 | 254 | 6.0 | 14.0 | 0.00 | 0.05 | 0.01 | 70 | 1012.8 |
| 20260903174023 | 83 | 194 | 7.0 | 14.0 | 0.00 | 0.05 | 0.01 | 70 | 1012.9 |
| 20260903173506 | 83 | 149 | 7.0 | 15.0 | 0.00 | 0.05 | 0.01 | 71 | 1012.9 |
| 20260903172747 | 83 | 163 | 7.0 | 15.0 | 0.00 | 0.05 | 0.01 | 72 | 1013.0 |
| 20260903172223 | 82 | 167 | 7.0 | 14.0 | 0.00 | 0.05 | 0.01 | 72 | 1013.0 |
| 20260903171656 | 82 | 158 | 7.0 | 12.0 | 0.00 | 0.05 | 0.01 | 73 | 1013.0 |
| 20260903171128 | 82 | 201 | 6.0 | 13.0 | 0.00 | 0.05 | 0.01 | 74 | 1013.0 |
| 20260903170626 | 82 | 153 | 5.0 | 11.0 | 0.00 | 0.05 | 0.01 | 74 | 1013.2 |
| 20260903170104 | 81 | 247 | 5.0 | 11.0 | 0.00 | 0.05 | 0.01 | 75 | 1013.1 |
| 20260903165534 | 81 | 140 | 5.0 | 10.0 | 0.00 | 0.05 | 0.01 | 75 | 1013.1 |
| 20260903165010 | 81 | 207 | 5.0 | 11.0 | 0.00 | 0.05 | 0.01 | 75 | 1013.0 |
| 20260903164441 | 81 | 231 | 5.0 | 9.0 | 0.00 | 0.05 | 0.01 | 76 | 1013.0 |
| 20260903163927 | 81 | 133 | 5.0 | 11.0 | 0.00 | 0.05 | 0.01 | 75 | 1013.0 |
| 20260903163418 | 81 | 139 | 5.0 | 10.0 | 0.00 | 0.05 | 0.01 | 75 | 1012.9 |
| 20260903162916 | 81 | 211 | 5.0 | 10.0 | 0.00 | 0.05 | 0.01 | 75 | 1012.9 |
| 20260903162355 | 82 | 129 | 4.0 | 10.0 | 0.00 | 0.05 | 0.01 | 76 | 1012.9 |
| 20260903161836 | 82 | 111 | 4.0 | 10.0 | 0.00 | 0.05 | 0.01 | 77 | 1012.8 |
| 20260903161335 | 82 | 245 | 4.0 | 10.0 | 0.00 | 0.05 | 0.01 | 76 | 1012.8 |
| 20260903160835 | 82 | 174 | 4.0 | 12.0 | 0.00 | 0.05 | 0.01 | 76 | 1012.8 |
| 20260903160314 | 82 | 121 | 4.0 | 12.0 | 0.00 | 0.05 | 0.01 | 77 | 1012.8 |
| 20260903155816 | 82 | 127 | 4.0 | 11.0 | 0.00 | 0.05 | 0.01 | 77 | 1012.8 |
| 20260903155525 | 81 | 136 | 5.0 | 11.0 | 0.00 | 0.05 | 0.01 | 77 | 1012.7 |
| 20260903155025 | 81 | 241 | 5.0 | 11.0 | 0.00 | 0.05 | 0.01 | 78 | 1012.7 |
| 20260903154303 | 81 | 184 | 5.0 | 11.0 | 0.00 | 0.05 | 0.01 | 79 | 1012.7 |
| 20260903153805 | 81 | 229 | 4.0 | 10.0 | 0.00 | 0.05 | 0.01 | 80 | 1012.7 |
| 20260903153236 | 80 | 204 | 3.0 | 8.0 | 0.00 | 0.05 | 0.01 | 81 | 1012.7 |
| 20260903152736 | 80 | 194 | 4.0 | 9.0 | 0.00 | 0.05 | 0.01 | 82 | 1012.7 |
| 20260903152500 | 80 | 137 | 3.0 | 9.0 | 0.00 | 0.05 | 0.01 | 82 | 1012.6 |
| 20260903152151 | 80 | 122 | 2.0 | 9.0 | 0.00 | 0.05 | 0.01 | 82 | 1012.7 |
| 20260903151155 | 80 | 141 | 4.0 | 9.0 | 0.00 | 0.05 | 0.01 | 83 | 1012.7 |
| 20260903150859 | 80 | 136 | 4.0 | 12.0 | 0.00 | 0.05 | 0.01 | 83 | 1012.7 |
| 20260903150132 | 80 | 139 | 4.0 | 12.0 | 0.00 | 0.05 | 0.01 | 83 | 1012.7 |
| 20260903145633 | 80 | 110 | 3.0 | 10.0 | 0.00 | 0.05 | 0.01 | 82 | 1012.7 |
| 20260903145132 | 80 | 105 | 3.0 | 10.0 | 0.00 | 0.05 | 0.01 | 82 | 1012.7 |
| 20260903144828 | 80 | 176 | 2.0 | 7.0 | 0.00 | 0.05 | 0.01 | 82 | 1012.7 |
| 20260903144044 | 80 | 190 | 1.0 | 9.0 | 0.00 | 0.05 | 0.01 | 82 | 1012.7 |
| 20260903143518 | 80 | 187 | 3.0 | 9.0 | 0.00 | 0.05 | 0.01 | 82 | 1012.7 |
| 20260903143015 | 80 | 150 | 3.0 | 11.0 | 0.00 | 0.05 | 0.01 | 82 | 1012.7 |
| 20260903142515 | 80 | 138 | 3.0 | 11.0 | 0.00 | 0.05 | 0.01 | 82 | 1012.7 |
| 20260903142008 | 80 | 136 | 4.0 | 9.0 | 0.00 | 0.05 | 0.01 | 83 | 1012.8 |
| 20260903141441 | 79 | 233 | 3.0 | 10.0 | 0.00 | 0.05 | 0.01 | 83 | 1012.7 |
| 20260903140940 | 79 | 139 | 3.0 | 8.0 | 0.00 | 0.05 | 0.01 | 83 | 1012.8 |
| 20260903140410 | 79 | 201 | 2.0 | 8.0 | 0.00 | 0.05 | 0.01 | 84 | 1012.9 |
| 20260903135904 | 79 | 161 | 2.0 | 8.0 | 0.00 | 0.05 | 0.01 | 84 | 1012.9 |
| 20260903135334 | 79 | 200 | 3.0 | 7.0 | 0.00 | 0.05 | 0.01 | 84 | 1012.8 |
| 20260903134831 | 79 | 112 | 3.0 | 7.0 | 0.00 | 0.05 | 0.01 | 85 | 1012.8 |
| 20260903134329 | 78 | 122 | 3.0 | 7.0 | 0.00 | 0.05 | 0.01 | 85 | 1012.8 |
| 20260903134249 | 78 | 144 | 3.0 | 9.0 | 0.00 | 0.05 | 0.01 | 85 | 1012.7 |
| 20260903133236 | 78 | 124 | 4.0 | 10.0 | 0.00 | 0.05 | 0.01 | 85 | 1012.7 |
| 20260903132736 | 78 | 164 | 4.0 | 10.0 | 0.00 | 0.05 | 0.01 | 85 | 1012.7 |
| 20260903132454 | 78 | 155 | 3.0 | 10.0 | 0.00 | 0.05 | 0.01 | 85 | 1012.8 |
| 20260903131930 | 78 | 124 | 3.0 | 10.0 | 0.00 | 0.05 | 0.01 | 85 | 1012.7 |
| 20260903131204 | 78 | 175 | 3.0 | 8.0 | 0.00 | 0.05 | 0.01 | 85 | 1012.6 |
| 20260903130635 | 78 | 134 | 2.0 | 7.0 | 0.00 | 0.05 | 0.01 | 85 | 1012.5 |
| 20260903130133 | 78 | 163 | 2.0 | 8.0 | 0.00 | 0.05 | 0.01 | 85 | 1012.5 |
| 20260903125605 | 78 | 86 | 3.0 | 8.0 | 0.00 | 0.05 | 0.01 | 86 | 1012.4 |
| 20260903125324 | 78 | 108 | 3.0 | 9.0 | 0.00 | 0.05 | 0.01 | 85 | 1012.4 |
| 20260903124551 | 77 | 124 | 3.0 | 9.0 | 0.00 | 0.05 | 0.01 | 85 | 1012.4 |
| 20260903124049 | 77 | 151 | 2.0 | 7.0 | 0.00 | 0.05 | 0.01 | 85 | 1012.4 |
| 20260903123527 | 77 | 146 | 3.0 | 9.0 | 0.00 | 0.05 | 0.01 | 85 | 1012.3 |
| 20260903123003 | 77 | 153 | 4.0 | 9.0 | 0.00 | 0.05 | 0.01 | 85 | 1012.2 |
| 20260903122938 | 77 | 106 | 4.0 | 9.0 | 0.00 | 0.05 | 0.01 | 85 | 1012.4 |
| 20260903122006 | 77 | 129 | 3.0 | 9.0 | 0.00 | 0.05 | 0.01 | 85 | 1012.4 |
| 20260903121503 | 77 | 134 | 3.0 | 8.0 | 0.00 | 0.05 | 0.01 | 85 | 1012.3 |
| 20260903121006 | 77 | 195 | 3.0 | 10.0 | 0.00 | 0.05 | 0.01 | 86 | 1012.2 |
| 20260903120437 | 77 | 134 | 2.0 | 10.0 | 0.00 | 0.05 | 0.01 | 86 | 1012.2 |
| 20260903115937 | 77 | 134 | 2.0 | 6.0 | 0.00 | 0.05 | 0.01 | 86 | 1012.2 |
| 20260903115408 | 77 | 110 | 2.0 | 6.0 | 0.00 | 0.05 | 0.01 | 86 | 1012.2 |
| 20260903114907 | 77 | 132 | 1.0 | 6.0 | 0.00 | 0.05 | 0.01 | 86 | 1012.1 |
| 20260903114352 | 77 | 194 | 1.0 | 6.0 | 0.00 | 0.05 | 0.01 | 86 | 1012.0 |
| 20260903113854 | 77 | 148 | 1.0 | 6.0 | 0.00 | 0.05 | 0.01 | 86 | 1011.9 |
| 20260903113325 | 77 | 170 | 1.0 | 6.0 | 0.00 | 0.05 | 0.01 | 86 | 1011.7 |
| 20260903113305 | 77 | 129 | 0.0 | 3.0 | 0.00 | 0.05 | 0.01 | 86 | 1012.0 |
| 20260903112257 | 77 | 131 | 1.0 | 3.0 | 0.00 | 0.05 | 0.01 | 86 | 1012.0 |
| 20260903111740 | 77 | 113 | 1.0 | 3.0 | 0.00 | 0.05 | 0.01 | 86 | 1012.0 |
| 20260903111235 | 77 | 221 | 1.0 | 3.0 | 0.00 | 0.05 | 0.01 | 86 | 1011.9 |
| 20260903110957 | 77 | 128 | 1.0 | 3.0 | 0.00 | 0.05 | 0.01 | 86 | 1011.9 |
| 20260903110231 | 76 | 191 | 1.0 | 3.0 | 0.00 | 0.05 | 0.01 | 86 | 1011.9 |
| 20260903105729 | 76 | 141 | 1.0 | 5.0 | 0.00 | 0.05 | 0.01 | 87 | 1012.0 |
| 20260903105444 | 76 | 143 | 1.0 | 8.0 | 0.00 | 0.05 | 0.01 | 87 | 1011.9 |
| 20260903104947 | 76 | 141 | 1.0 | 8.0 | 0.00 | 0.05 | 0.01 | 87 | 1011.7 |
| 20260903104159 | 76 | 152 | 2.0 | 8.0 | 0.00 | 0.05 | 0.01 | 87 | 1011.7 |
| 20260903103657 | 76 | 146 | 2.0 | 8.0 | 0.00 | 0.05 | 0.01 | 87 | 1011.7 |
| 20260903103129 | 76 | 220 | 2.0 | 6.0 | 0.00 | 0.05 | 0.01 | 87 | 1011.6 |
| 20260903102628 | 76 | 156 | 2.0 | 6.0 | 0.00 | 0.05 | 0.01 | 87 | 1011.6 |
| 20260903102615 | 76 | 127 | 2.0 | 5.0 | 0.00 | 0.05 | 0.01 | 87 | 1011.6 |
| 20260903101619 | 76 | 117 | 2.0 | 5.0 | 0.00 | 0.05 | 0.01 | 87 | 1011.6 |
| 20260903101341 | 76 | 128 | 1.0 | 5.0 | 0.00 | 0.05 | 0.01 | 87 | 1011.5 |
| 20260903100614 | 76 | 138 | 1.0 | 4.0 | 0.00 | 0.05 | 0.01 | 87 | 1011.5 |
| 20260903100110 | 76 | 125 | 1.0 | 4.0 | 0.00 | 0.05 | 0.01 | 87 | 1011.5 |
| 20260903095607 | 76 | 105 | 1.0 | 4.0 | 0.01 | 0.05 | 0.01 | 87 | 1011.6 |
| 20260903095056 | 76 | 141 | 2.0 | 6.0 | 0.01 | 0.05 | 0.01 | 86 | 1011.6 |
| 20260903094558 | 76 | 151 | 2.0 | 6.0 | 0.01 | 0.05 | 0.01 | 86 | 1011.7 |
| 20260903094049 | 76 | 158 | 1.0 | 6.0 | 0.01 | 0.05 | 0.01 | 86 | 1011.7 |
| 20260903093548 | 76 | 128 | 1.0 | 5.0 | 0.01 | 0.05 | 0.01 | 86 | 1011.6 |
| 20260903093020 | 76 | 115 | 1.0 | 5.0 | 0.01 | 0.05 | 0.01 | 86 | 1011.6 |
| 20260903092456 | 76 | 129 | 1.0 | 4.0 | 0.01 | 0.05 | 0.01 | 86 | 1011.6 |
| 20260903092144 | 76 | 116 | 1.0 | 4.0 | 0.01 | 0.05 | 0.01 | 86 | 1011.6 |
| 20260903091423 | 76 | 122 | 1.0 | 4.0 | 0.01 | 0.05 | 0.01 | 87 | 1011.6 |
| 20260903090925 | 76 | 117 | 0.0 | 6.0 | 0.01 | 0.05 | 0.01 | 87 | 1011.6 |
| 20260903090351 | 76 | 211 | 1.0 | 6.0 | 0.01 | 0.05 | 0.01 | 87 | 1011.3 |
| 20260903085827 | 76 | 264 | 2.0 | 8.0 | 0.01 | 0.05 | 0.01 | 87 | 1011.3 |
| 20260903085305 | 76 | 252 | 3.0 | 8.0 | 0.00 | 0.04 | 0.00 | 87 | 1011.4 |
| 20260903084733 | 76 | 227 | 3.0 | 6.0 | 0.00 | 0.04 | 0.00 | 87 | 1011.4 |
| 20260903084231 | 76 | 187 | 3.0 | 7.0 | 0.00 | 0.04 | 0.00 | 87 | 1011.4 |
| 20260903083704 | 76 | 176 | 3.0 | 7.0 | 0.00 | 0.04 | 0.00 | 87 | 1011.3 |
| 20260903083201 | 76 | 170 | 3.0 | 7.0 | 0.00 | 0.04 | 0.00 | 87 | 1011.3 |
| 20260903082700 | 76 | 217 | 2.0 | 7.0 | 0.00 | 0.04 | 0.00 | 87 | 1011.2 |
| 20260903082131 | 76 | 210 | 1.0 | 4.0 | 0.00 | 0.04 | 0.00 | 87 | 1011.3 |
| 20260903081630 | 76 | 156 | 1.0 | 3.0 | 0.00 | 0.04 | 0.00 | 87 | 1011.3 |
| 20260903081101 | 76 | 122 | 1.0 | 3.0 | 0.00 | 0.04 | 0.00 | 87 | 1011.3 |
| 20260903080558 | 76 | 138 | 0.0 | 3.0 | 0.00 | 0.04 | 0.00 | 87 | 1011.3 |
| 20260903080034 | 76 | 151 | 1.0 | 4.0 | 0.00 | 0.04 | 0.00 | 87 | 1011.3 |
| 20260903075506 | 76 | 115 | 1.0 | 5.0 | 0.00 | 0.04 | 0.00 | 87 | 1011.3 |
| 20260903075006 | 76 | 120 | 1.0 | 5.0 | 0.00 | 0.04 | 0.00 | 86 | 1011.2 |
| 20260903074503 | 76 | 114 | 0.0 | 3.0 | 0.00 | 0.04 | 0.00 | 86 | 1011.1 |
| 20260903074004 | 76 | 113 | 0.0 | 4.0 | 0.00 | 0.04 | 0.00 | 85 | 1011.1 |
| 20260903073437 | 77 | 129 | 1.0 | 4.0 | 0.00 | 0.04 | 0.00 | 85 | 1011.1 |
| 20260903072932 | 77 | 108 | 1.0 | 4.0 | 0.00 | 0.04 | 0.00 | 84 | 1011.2 |
| 20260903072432 | 77 | 122 | 0.0 | 4.0 | 0.00 | 0.04 | 0.00 | 83 | 1011.3 |
| 20260903071900 | 77 | 122 | 1.0 | 5.0 | 0.00 | 0.04 | 0.00 | 82 | 1011.3 |
| 20260903071338 | 78 | 113 | 1.0 | 6.0 | 0.00 | 0.04 | 0.00 | 81 | 1011.4 |
| 20260903070837 | 78 | 139 | 3.0 | 10.0 | 0.00 | 0.04 | 0.00 | 81 | 1011.4 |
| 20260903070337 | 78 | 124 | 4.0 | 11.0 | 0.00 | 0.04 | 0.00 | 79 | 1011.4 |
| 20260903065810 | 79 | 113 | 3.0 | 9.0 | 0.00 | 0.04 | 0.00 | 78 | 1011.4 |
| 20260903065241 | 79 | 87 | 2.0 | 9.0 | 0.00 | 0.04 | 0.00 | 76 | 1011.4 |
| 20260903065002 | 80 | 99 | 2.0 | 7.0 | 0.00 | 0.04 | 0.00 | 76 | 1011.4 |
| 20260903064458 | 80 | 115 | 1.0 | 7.0 | 0.00 | 0.04 | 0.00 | 75 | 1011.4 |
| 20260903063733 | 80 | 98 | 1.0 | 4.0 | 0.00 | 0.04 | 0.00 | 75 | 1011.4 |
| 20260903063205 | 80 | 109 | 0.0 | 4.0 | 0.00 | 0.04 | 0.00 | 75 | 1011.3 |
| 20260903062701 | 80 | 123 | 0.0 | 1.0 | 0.00 | 0.04 | 0.00 | 75 | 1011.3 |
| 20260903062138 | 80 | 123 | 0.0 | 2.0 | 0.00 | 0.04 | 0.00 | 75 | 1011.2 |
| 20260903061608 | 80 | 126 | 0.0 | 2.0 | 0.00 | 0.04 | 0.00 | 75 | 1011.3 |
| 20260903061107 | 80 | 126 | 1.0 | 6.0 | 0.00 | 0.04 | 0.00 | 75 | 1011.4 |
| 20260903060541 | 80 | 127 | 2.0 | 7.0 | 0.00 | 0.04 | 0.00 | 75 | 1011.4 |
| 20260903060037 | 80 | 124 | 2.0 | 7.0 | 0.00 | 0.04 | 0.00 | 75 | 1011.5 |
| 20260903055536 | 80 | 116 | 1.0 | 5.0 | 0.00 | 0.04 | 0.00 | 75 | 1011.6 |
| 20260903055009 | 80 | 127 | 1.0 | 4.0 | 0.00 | 0.04 | 0.00 | 75 | 1011.9 |
| 20260903054443 | 80 | 117 | 2.0 | 7.0 | 0.00 | 0.04 | 0.00 | 75 | 1012.0 |
| 20260903053921 | 80 | 117 | 2.0 | 8.0 | 0.00 | 0.04 | 0.00 | 74 | 1012.0 |
| 20260903053358 | 80 | 59 | 2.0 | 8.0 | 0.00 | 0.04 | 0.00 | 74 | 1012.0 |
| 20260903052835 | 80 | 107 | 2.0 | 10.0 | 0.00 | 0.04 | 0.00 | 73 | 1012.0 |
| 20260903052332 | 80 | 97 | 1.0 | 10.0 | 0.00 | 0.04 | 0.00 | 73 | 1012.1 |
| 20260903051833 | 80 | 105 | 0.0 | 5.0 | 0.00 | 0.04 | 0.00 | 72 | 1012.1 |
| 20260903051335 | 80 | 86 | 0.0 | 5.0 | 0.00 | 0.04 | 0.00 | 72 | 1012.0 |